This is the latest recevied weather packets stored in our database for station/object N5CSU. If no packets are shown the sender has not sent any weather packets the latest 10 day(s).
| Time | Temp. | Humidity | Pressure | Rain* | Wind** | Luminosity | Snow |
|---|---|---|---|---|---|---|---|
| 1788465904 | 32.22° C | 65% | 1012.7 hPa | 0 mm | - | 39 W/m² | - |
| 1788465618 | 31.67° C | 66% | 1012.6 hPa | 0 mm | - | 39 W/m² | - |
| 1788465295 | 31.67° C | 66% | 1012.4 hPa | 0 mm | - | 45 W/m² | - |
| 1788464990 | 31.67° C | 66% | 1012.9 hPa | 0 mm | - | 41 W/m² | - |
| 1788464685 | 31.67° C | 67% | 1012.8 hPa | 0 mm | - | 50 W/m² | - |
| 1788464381 | 31.67° C | 66% | 1012.7 hPa | 0 mm | - | 48 W/m² | - |
| 1788464077 | 31.67° C | 67% | 1012.8 hPa | 0 mm | - | 68 W/m² | - |
| 1788463772 | 31.11° C | 68% | 1013.1 hPa | 0 mm | - | 62 W/m² | - |
| 1788463469 | 31.11° C | 68% | 1013 hPa | 0 mm | - | 42 W/m² | - |
| 1788463164 | 30.56° C | 70% | 1013.1 hPa | 0 mm | - | 43 W/m² | - |
| 1788462860 | 30.56° C | 70% | 1013.2 hPa | 0 mm | - | 57 W/m² | - |
| 1788462559 | 30.56° C | 71% | 1013.1 hPa | 0 mm | - | 28 W/m² | - |
| 1788462254 | 30.56° C | 70% | 1013.3 hPa | 0 mm | - | 24 W/m² | - |
| 1788461953 | 30.56° C | 70% | 1013.2 hPa | 0 mm | - | 34 W/m² | - |
| 1788461649 | 30.56° C | 70% | 1013.2 hPa | 0 mm | - | 56 W/m² | - |
| 1788461344 | 30.56° C | 71% | 1013.4 hPa | 0 mm | - | 55 W/m² | - |
| 1788461041 | 30° C | 71% | 1013.5 hPa | 0 mm | - | 44 W/m² | - |
| 1788460740 | 30.56° C | 71% | 1013.6 hPa | 0 mm | - | 45 W/m² | - |
| 1788460435 | 30° C | 72% | 1013.6 hPa | 0 mm | - | 54 W/m² | - |
| 1788460135 | 30° C | 73% | 1013.8 hPa | 0 mm | - | 78 W/m² | - |
| 1788459834 | 29.44° C | 74% | 1013.9 hPa | 0 mm | - | 46 W/m² | - |
| 1788459528 | 29.44° C | 73% | 1013.9 hPa | 0 mm | - | 38 W/m² | - |
| 1788459224 | 29.44° C | 74% | 1014 hPa | 0 mm | - | 53 W/m² | - |
| 1788458918 | 29.44° C | 74% | 1014 hPa | 0 mm | - | 42 W/m² | - |
| 1788458617 | 28.89° C | 74% | 1014.1 hPa | 0 mm | - | 46 W/m² | - |
* Rain latest hour (hover to see other rain measurements)
** Current wind speed in m/s (hover to see current wind gust speed)